Location: Noordwijk
(52.2400°N, 4.4500°E)
Time: 19:13:44
(UTC+00:00)

AO-7 - Pass Details

Date: 10 December 2022
Orbit: 1440 x 1459 km, 101.9° (Epoch: 31 January)

Event Time Altitude Azimuth Distance (km) Brightness Sun altitude
Rises 05:25:55 0° 20° (NNE) 4,548 ? -19.3°
Reaches altitude 10° 05:28:43 10° 18° (NNE) 3,568 ? -18.8°
Maximum altitude 05:36:56 69° 298° (WNW) 1,535 ? -17.6°
Drops below altitude 10° 05:45:09 10° 217° (SW) 3,562 ? -16.4°
Sets 05:47:56 0° 215° (SW) 4,539 ? -16.0°
